sat.trackr.live / text

‹ back to catalog

STARLINK-32895

NORAD 63081 · 2025-037E

PAYLOAD ACTIVE UNKNOWN

§ Identity

Operator
Country
US
Launch date
2025-02-23
Launch site
AFWTR
Launch vehicle
Mass (kg)
RCS (m²)

Purposes: comms

External: N2YO · Heavens-Above · Gunter

§ Orbital elements

Epoch: 2026-09-20T14:18:13.933440Z

Period
94.14 min
Inclination
70.0001°
Eccentricity
0.0003187
Mean motion
15.29609487 rev/d
Perigee alt
474.8 km
Apogee alt
479.2 km
Semi-major
6,855.1 km
B*
4.6674e-4
RAAN
220.7786°
Arg perigee
268.0758°
Mean anomaly
92.0052°
Rev number
8,771

§ Raw data

STARLINK-328951 63081U 25037E   26263.59599460  .00013325  00000+0  46674-3 0  99942 63081  70.0001 220.7786 0003187 268.0758  92.0052 15.29609487 87717

JSON: /api/v1/satellites/63081 · /tle

For live sub-satellite position, see the globe view (requires WebGL).

§ Visibility from observer

Set your observer location to see the next 7 days of passes ≥ 10°. The values pass through the URL so the page stays shareable.

No JS? Fill the form by hand. The geolocation button needs JavaScript.